Time,TemperatureF,DewpointF,PressureIn,WindDirection,WindDirectionDegrees,WindSpeedMPH,WindSpeedGustMPH,Humidity,HourlyPrecipIn,Conditions,Clouds,dailyrainin,SoftwareType,DateUTC
2013-09-22 00:02:00,69.0,49.0,-100.00,SSE,166,6.0,19.0,49,0.00,,,-99.99,,2013-09-22 00:02:00,
2013-09-22 00:12:00,69.0,49.0,-100.00,SSE,166,6.0,19.0,49,0.00,,,-99.99,,2013-09-22 00:12:00,
2013-09-22 00:43:00,68.0,43.0,-100.00,South,186,5.0,19.0,40,0.00,,,0.01,,2013-09-22 00:43:00,
2013-09-22 00:52:00,68.0,43.0,-100.00,South,186,5.0,19.0,40,0.00,,,0.01,,2013-09-22 00:52:00,
2013-09-22 01:02:00,68.0,43.0,-100.00,South,186,5.0,19.0,40,0.00,,,0.01,,2013-09-22 01:02:00,
2013-09-22 01:11:00,68.0,43.0,-100.00,South,186,5.0,19.0,40,0.00,,,0.01,,2013-09-22 01:11:00,
2013-09-22 01:42:00,66.0,40.0,-100.00,SSW,196,5.0,18.0,38,0.00,,,0.01,,2013-09-22 01:42:00,
2013-09-22 01:52:00,66.0,40.0,-100.00,SSW,196,5.0,18.0,38,0.00,,,0.01,,2013-09-22 01:52:00,
2013-09-22 02:02:00,66.0,40.0,-100.00,SSW,196,5.0,18.0,38,0.00,,,0.01,,2013-09-22 02:02:00,
2013-09-22 02:11:00,66.0,40.0,-100.00,SSW,196,5.0,18.0,38,0.00,,,0.01,,2013-09-22 02:11:00,
2013-09-22 02:42:00,63.0,41.0,-100.00,SSE,168,4.0,13.0,44,0.00,,,0.01,,2013-09-22 02:42:00,
2013-09-22 02:52:00,63.0,41.0,-100.00,SSE,168,4.0,13.0,44,0.00,,,0.01,,2013-09-22 02:52:00,
2013-09-22 03:02:00,63.0,41.0,-100.00,SSE,168,4.0,13.0,44,0.00,,,0.01,,2013-09-22 03:02:00,
2013-09-22 03:12:00,63.0,41.0,-100.00,SSE,168,4.0,13.0,44,0.00,,,0.01,,2013-09-22 03:12:00,
2013-09-22 03:45:00,63.0,42.0,-100.00,SSE,164,6.0,17.0,46,0.00,,,0.01,,2013-09-22 03:45:00,
2013-09-22 03:54:00,63.0,42.0,-100.00,SSE,164,6.0,17.0,46,0.00,,,0.01,,2013-09-22 03:54:00,
2013-09-22 04:02:00,-999.0,-99.9,-100.00,SSE,164,6.0,17.0,-999,-99.99,,,-99.99,,2013-09-22 04:02:00,
2013-09-22 04:14:00,63.0,42.0,-100.00,SSE,164,6.0,17.0,46,0.00,,,0.01,,2013-09-22 04:14:00,
2013-09-22 04:54:00,62.0,43.0,-100.00,SSE,166,8.0,22.0,50,0.00,,,0.01,,2013-09-22 04:54:00,
2013-09-22 05:03:00,62.0,43.0,-100.00,SSE,166,8.0,22.0,50,0.00,,,0.01,,2013-09-22 05:03:00,
2013-09-22 05:13:00,62.0,43.0,-100.00,SSE,166,8.0,22.0,50,0.00,,,0.01,,2013-09-22 05:13:00,
2013-09-22 05:43:00,62.0,42.0,-100.00,SSE,164,9.0,19.0,48,0.00,,,0.01,,2013-09-22 05:43:00,
2013-09-22 05:53:00,62.0,42.0,-100.00,SSE,164,9.0,19.0,48,0.00,,,0.01,,2013-09-22 05:53:00,
2013-09-22 06:02:00,62.0,42.0,-100.00,SSE,164,9.0,19.0,48,0.00,,,0.01,,2013-09-22 06:02:00,
2013-09-22 06:12:00,62.0,42.0,-100.00,SSE,164,9.0,19.0,48,0.00,,,0.01,,2013-09-22 06:12:00,
2013-09-22 06:42:00,62.0,42.0,-100.00,South,172,8.0,21.0,48,0.00,,,0.01,,2013-09-22 06:42:00,
2013-09-22 06:52:00,62.0,42.0,-100.00,South,172,8.0,21.0,48,0.00,,,0.01,,2013-09-22 06:52:00,
2013-09-22 07:02:00,62.0,42.0,-100.00,South,172,8.0,21.0,48,0.00,,,0.01,,2013-09-22 07:02:00,
2013-09-22 07:11:00,62.0,42.0,-100.00,South,172,8.0,21.0,48,0.00,,,0.01,,2013-09-22 07:11:00,
2013-09-22 07:42:00,60.0,42.0,-100.00,South,177,7.0,20.0,52,0.00,,,-99.99,,2013-09-22 07:42:00,
2013-09-22 07:52:00,60.0,42.0,-100.00,South,177,7.0,20.0,52,0.00,,,-99.99,,2013-09-22 07:52:00,
2013-09-22 08:03:00,60.0,42.0,-100.00,South,177,7.0,20.0,52,0.00,,,-99.99,,2013-09-22 08:03:00,
2013-09-22 08:11:00,60.0,42.0,-100.00,South,177,7.0,20.0,52,0.00,,,-99.99,,2013-09-22 08:11:00,
2013-09-22 08:42:00,59.0,45.0,-100.00,SSE,157,8.0,17.0,59,0.00,,,0.01,,2013-09-22 08:42:00,
2013-09-22 08:52:00,59.0,45.0,-100.00,SSE,157,8.0,17.0,59,0.00,,,0.01,,2013-09-22 08:52:00,
2013-09-22 09:02:00,59.0,45.0,-100.00,SSE,157,8.0,17.0,59,0.00,,,0.01,,2013-09-22 09:02:00,
2013-09-22 09:11:00,59.0,45.0,-100.00,SSE,157,8.0,17.0,59,0.00,,,0.01,,2013-09-22 09:11:00,
2013-09-22 09:43:00,58.0,46.0,-100.00,SSE,163,7.0,20.0,64,0.00,,,0.01,,2013-09-22 09:43:00,
2013-09-22 09:53:00,58.0,46.0,-100.00,SSE,163,7.0,20.0,64,0.00,,,0.01,,2013-09-22 09:53:00,
2013-09-22 10:03:00,58.0,46.0,-100.00,SSE,163,7.0,20.0,64,0.00,,,0.01,,2013-09-22 10:03:00,
2013-09-22 10:12:00,58.0,46.0,-100.00,SSE,163,7.0,20.0,64,0.00,,,0.01,,2013-09-22 10:12:00,
2013-09-22 10:44:00,58.0,47.0,-100.00,SSE,149,11.0,30.0,67,0.00,,,0.01,,2013-09-22 10:44:00,
2013-09-22 10:53:00,58.0,47.0,-100.00,SSE,149,11.0,30.0,67,0.00,,,0.01,,2013-09-22 10:53:00,
2013-09-22 11:12:00,58.0,47.0,-100.00,SSE,149,11.0,30.0,67,0.00,,,0.01,,2013-09-22 11:12:00,
2013-09-22 11:42:00,58.0,45.0,-100.00,South,169,9.0,23.0,63,0.00,,,0.01,,2013-09-22 11:42:00,
2013-09-22 11:52:00,58.0,45.0,-100.00,South,169,9.0,23.0,63,0.00,,,0.01,,2013-09-22 11:52:00,
2013-09-22 12:02:00,58.0,45.0,-100.00,South,169,9.0,23.0,63,0.00,,,0.01,,2013-09-22 12:02:00,
2013-09-22 12:12:00,58.0,45.0,-100.00,South,169,9.0,23.0,63,0.00,,,0.01,,2013-09-22 12:12:00,
2013-09-22 12:42:00,56.0,42.0,-100.00,SSE,164,6.0,23.0,60,0.00,,,0.01,,2013-09-22 12:42:00,
2013-09-22 12:52:00,56.0,42.0,-100.00,SSE,164,6.0,23.0,60,0.00,,,0.01,,2013-09-22 12:52:00,
2013-09-22 13:02:00,56.0,42.0,-100.00,SSE,164,6.0,23.0,60,0.00,,,0.01,,2013-09-22 13:02:00,
2013-09-22 13:12:00,56.0,42.0,-100.00,SSE,164,6.0,23.0,60,0.00,,,0.01,,2013-09-22 13:12:00,
2013-09-22 13:42:00,55.0,40.0,-100.00,SSE,152,6.0,19.0,57,0.00,,,0.01,,2013-09-22 13:42:00,
2013-09-22 13:52:00,55.0,40.0,-100.00,SSE,152,6.0,19.0,57,0.00,,,0.01,,2013-09-22 13:52:00,
2013-09-22 14:02:00,55.0,40.0,-100.00,SSE,152,6.0,19.0,57,0.00,,,0.01,,2013-09-22 14:02:00,
2013-09-22 14:11:00,55.0,40.0,-100.00,SSE,152,6.0,19.0,57,0.00,,,0.01,,2013-09-22 14:11:00,
2013-09-22 14:42:00,55.0,41.0,-100.00,SSE,168,6.0,15.0,58,0.00,,,0.01,,2013-09-22 14:42:00,
2013-09-22 14:52:00,55.0,41.0,-100.00,SSE,168,6.0,15.0,58,0.00,,,0.01,,2013-09-22 14:52:00,
2013-09-22 15:02:00,55.0,41.0,-100.00,SSE,168,6.0,15.0,58,0.00,,,0.01,,2013-09-22 15:02:00,
2013-09-22 15:12:00,55.0,41.0,-100.00,SSE,168,6.0,15.0,58,0.00,,,0.01,,2013-09-22 15:12:00,
2013-09-22 15:44:00,58.0,36.0,-100.00,SSE,161,10.0,20.0,44,0.00,,,0.01,,2013-09-22 15:44:00,
2013-09-22 15:55:00,58.0,36.0,-100.00,SSE,161,10.0,20.0,44,0.00,,,0.01,,2013-09-22 15:55:00,
2013-09-22 16:04:00,58.0,36.0,-100.00,SSE,161,10.0,20.0,44,0.00,,,0.01,,2013-09-22 16:04:00,
2013-09-22 16:13:00,58.0,36.0,-100.00,SSE,161,10.0,20.0,44,0.00,,,0.01,,2013-09-22 16:13:00,
2013-09-22 16:43:00,61.0,36.0,-100.00,SSE,168,11.0,23.0,40,0.00,,,0.01,,2013-09-22 16:43:00,
2013-09-22 16:54:00,61.0,36.0,-100.00,SSE,168,11.0,23.0,40,0.00,,,0.01,,2013-09-22 16:54:00,
2013-09-22 17:03:00,61.0,36.0,-100.00,SSE,168,11.0,23.0,40,0.00,,,0.01,,2013-09-22 17:03:00,
2013-09-22 17:12:00,61.0,36.0,-100.00,SSE,168,11.0,23.0,40,0.00,,,0.01,,2013-09-22 17:12:00,
2013-09-22 17:43:00,61.0,29.0,-100.00,WSW,238,10.0,24.0,30,0.00,,,0.01,,2013-09-22 17:43:00,
2013-09-22 17:53:00,61.0,29.0,-100.00,WSW,238,10.0,24.0,30,0.00,,,0.01,,2013-09-22 17:53:00,
2013-09-22 18:02:00,61.0,29.0,-100.00,WSW,238,10.0,24.0,30,0.00,,,0.01,,2013-09-22 18:02:00,
2013-09-22 18:12:00,61.0,29.0,-100.00,WSW,238,10.0,24.0,30,0.00,,,0.01,,2013-09-22 18:12:00,
2013-09-22 18:42:00,60.0,29.0,-100.00,WSW,252,13.0,27.0,31,0.00,,,0.01,,2013-09-22 18:42:00,
2013-09-22 18:52:00,60.0,29.0,-100.00,WSW,252,13.0,27.0,31,0.00,,,0.01,,2013-09-22 18:52:00,
2013-09-22 19:02:00,60.0,29.0,-100.00,WSW,252,13.0,27.0,31,0.00,,,0.01,,2013-09-22 19:02:00,
2013-09-22 19:11:00,60.0,29.0,-100.00,WSW,252,13.0,27.0,31,0.00,,,0.01,,2013-09-22 19:11:00,
2013-09-22 19:42:00,62.0,25.0,-100.00,WSW,238,11.0,25.0,24,0.00,,,0.01,,2013-09-22 19:42:00,
2013-09-22 19:52:00,62.0,25.0,-100.00,WSW,238,11.0,25.0,24,0.00,,,0.01,,2013-09-22 19:52:00,
2013-09-22 20:03:00,62.0,25.0,-100.00,WSW,238,11.0,25.0,24,0.00,,,0.01,,2013-09-22 20:03:00,
2013-09-22 20:12:00,62.0,25.0,-100.00,WSW,238,11.0,25.0,24,0.00,,,0.01,,2013-09-22 20:12:00,
2013-09-22 20:42:00,62.0,23.0,-100.00,WSW,238,11.0,23.0,22,0.00,,,0.01,,2013-09-22 20:42:00,
2013-09-22 20:52:00,62.0,23.0,-100.00,WSW,238,11.0,23.0,22,0.00,,,0.01,,2013-09-22 20:52:00,
2013-09-22 21:02:00,62.0,23.0,-100.00,WSW,238,11.0,23.0,22,0.00,,,0.01,,2013-09-22 21:02:00,
2013-09-22 21:12:00,62.0,23.0,-100.00,WSW,238,11.0,23.0,22,0.00,,,0.01,,2013-09-22 21:12:00,
2013-09-22 21:45:00,63.0,21.0,-100.00,WSW,252,11.0,22.0,20,0.00,,,0.01,,2013-09-22 21:45:00,
2013-09-22 21:54:00,63.0,21.0,-100.00,WSW,252,11.0,22.0,20,0.00,,,0.01,,2013-09-22 21:54:00,
2013-09-22 22:04:00,63.0,21.0,-100.00,WSW,252,11.0,22.0,20,0.00,,,0.01,,2013-09-22 22:04:00,
2013-09-22 22:14:00,63.0,21.0,-100.00,WSW,252,11.0,22.0,20,0.00,,,0.01,,2013-09-22 22:14:00,
2013-09-22 22:43:00,63.0,19.0,-100.00,West,270,15.0,27.0,18,0.00,,,-99.99,,2013-09-22 22:43:00,
2013-09-22 22:53:00,63.0,19.0,-100.00,West,270,15.0,27.0,18,0.00,,,-99.99,,2013-09-22 22:53:00,
2013-09-22 23:03:00,63.0,19.0,-100.00,West,270,15.0,27.0,18,0.00,,,-99.99,,2013-09-22 23:03:00,
2013-09-22 23:12:00,63.0,19.0,-100.00,West,270,15.0,27.0,18,0.00,,,-99.99,,2013-09-22 23:12:00,
2013-09-22 23:43:00,61.0,18.0,-100.00,West,266,14.0,24.0,19,0.00,,,0.00,,2013-09-22 23:43:00,
2013-09-22 23:52:00,61.0,18.0,-100.00,West,266,14.0,24.0,19,0.00,,,0.00,,2013-09-22 23:52:00,